﻿測定場所 (Monitoring sites),日付 (Measurement date),時間 (Measurement time),線量率 最大値 (max) μGy/h,線量率 最小値 (min) μGy/h,線量率 平均値 (average) μGy/h,
調布 (Chofu),2012-04-15,23:01～24:00,0.0396,0.0347,0.0369,
調布 (Chofu),2012-04-15,22:01～23:00,0.0397,0.0349,0.0366,
調布 (Chofu),2012-04-15,21:01～22:00,0.0407,0.0348,0.0367,
調布 (Chofu),2012-04-15,20:01～21:00,0.0397,0.0348,0.0365,
調布 (Chofu),2012-04-15,19:01～20:00,0.0384,0.0344,0.0364,
調布 (Chofu),2012-04-15,18:01～19:00,0.0404,0.0352,0.0369,
調布 (Chofu),2012-04-15,17:01～18:00,0.0397,0.0348,0.0366,
調布 (Chofu),2012-04-15,16:01～17:00,0.0390,0.0350,0.0365,
調布 (Chofu),2012-04-15,15:01～16:00,0.0396,0.0348,0.0368,
調布 (Chofu),2012-04-15,14:01～15:00,0.0387,0.0342,0.0366,
調布 (Chofu),2012-04-15,13:01～14:00,0.0391,0.0353,0.0368,
調布 (Chofu),2012-04-15,12:01～13:00,0.0389,0.0338,0.0368,
調布 (Chofu),2012-04-15,11:01～12:00,0.0392,0.0346,0.0369,
調布 (Chofu),2012-04-15,10:01～11:00,0.0388,0.0348,0.0366,
調布 (Chofu),2012-04-15,09:01～10:00,0.0399,0.0350,0.0370,
調布 (Chofu),2012-04-15,08:01～09:00,0.0410,0.0346,0.0372,
調布 (Chofu),2012-04-15,07:01～08:00,0.0398,0.0354,0.0371,
調布 (Chofu),2012-04-15,06:01～07:00,0.0414,0.0351,0.0369,
調布 (Chofu),2012-04-15,05:01～06:00,0.0400,0.0346,0.0369,
調布 (Chofu),2012-04-15,04:01～05:00,0.0408,0.0354,0.0369,
調布 (Chofu),2012-04-15,03:01～04:00,0.0402,0.0338,0.0366,
調布 (Chofu),2012-04-15,02:01～03:00,0.0397,0.0351,0.0368,
調布 (Chofu),2012-04-15,01:01～02:00,0.0387,0.0346,0.0364,
調布 (Chofu),2012-04-15,00:01～01:00,0.0395,0.0349,0.0364,
調布 (Chofu),2012-04-14,23:01～24:00,0.0402,0.0355,0.0369,
調布 (Chofu),2012-04-14,22:01～23:00,0.0412,0.0354,0.0378,
調布 (Chofu),2012-04-14,21:01～22:00,0.0435,0.0354,0.0403,
調布 (Chofu),2012-04-14,20:01～21:00,0.0441,0.0371,0.0409,
調布 (Chofu),2012-04-14,19:01～20:00,0.0462,0.0396,0.0426,
調布 (Chofu),2012-04-14,18:01～19:00,0.0473,0.0398,0.0434,
調布 (Chofu),2012-04-14,17:01～18:00,0.0556,0.0429,0.0484,
調布 (Chofu),2012-04-14,16:01～17:00,0.0571,0.0490,0.0533,
調布 (Chofu),2012-04-14,15:01～16:00,0.0580,0.0488,0.0541,
調布 (Chofu),2012-04-14,14:01～15:00,0.0582,0.0495,0.0538,
調布 (Chofu),2012-04-14,13:01～14:00,0.0584,0.0506,0.0549,
調布 (Chofu),2012-04-14,12:01～13:00,0.0633,0.0554,0.0594,
調布 (Chofu),2012-04-14,11:01～12:00,0.0610,0.0526,0.0569,
調布 (Chofu),2012-04-14,10:01～11:00,0.0627,0.0550,0.0592,
調布 (Chofu),2012-04-14,09:01～10:00,0.0627,0.0527,0.0578,
調布 (Chofu),2012-04-14,08:01～09:00,0.0629,0.0519,0.0569,
調布 (Chofu),2012-04-14,07:01～08:00,0.0575,0.0496,0.0533,
調布 (Chofu),2012-04-14,06:01～07:00,0.0574,0.0484,0.0528,
調布 (Chofu),2012-04-14,05:01～06:00,0.0543,0.0429,0.0483,
調布 (Chofu),2012-04-14,04:01～05:00,0.0482,0.0420,0.0447,
調布 (Chofu),2012-04-14,03:01～04:00,0.0502,0.0404,0.0462,
調布 (Chofu),2012-04-14,02:01～03:00,0.0493,0.0415,0.0453,
調布 (Chofu),2012-04-14,01:01～02:00,0.0509,0.0416,0.0449,
調布 (Chofu),2012-04-14,00:01～01:00,0.0537,0.0462,0.0497,
調布 (Chofu),2012-04-13,23:01～24:00,0.0496,0.0433,0.0471,
調布 (Chofu),2012-04-13,22:01～23:00,0.0490,0.0408,0.0444,
調布 (Chofu),2012-04-13,21:01～22:00,0.0507,0.0426,0.0457,
調布 (Chofu),2012-04-13,20:01～21:00,0.0493,0.0391,0.0443,
調布 (Chofu),2012-04-13,19:01～20:00,0.0429,0.0352,0.0384,
調布 (Chofu),2012-04-13,18:01～19:00,0.0394,0.0355,0.0370,
調布 (Chofu),2012-04-13,17:01～18:00,0.0406,0.0347,0.0370,
調布 (Chofu),2012-04-13,16:01～17:00,0.0408,0.0348,0.0368,
調布 (Chofu),2012-04-13,15:01～16:00,0.0403,0.0349,0.0371,
調布 (Chofu),2012-04-13,14:01～15:00,0.0397,0.0346,0.0370,
調布 (Chofu),2012-04-13,13:01～14:00,0.0408,0.0342,0.0368,
調布 (Chofu),2012-04-13,12:01～13:00,0.0415,0.0349,0.0371,
調布 (Chofu),2012-04-13,11:01～12:00,0.0396,0.0350,0.0368,
調布 (Chofu),2012-04-13,10:01～11:00,0.0406,0.0353,0.0371,
調布 (Chofu),2012-04-13,09:01～10:00,0.0406,0.0353,0.0374,
調布 (Chofu),2012-04-13,08:01～09:00,0.0410,0.0355,0.0372,
調布 (Chofu),2012-04-13,07:01～08:00,0.0404,0.0356,0.0374,
調布 (Chofu),2012-04-13,06:01～07:00,0.0415,0.0357,0.0379,
調布 (Chofu),2012-04-13,05:01～06:00,0.0404,0.0353,0.0374,
調布 (Chofu),2012-04-13,04:01～05:00,0.0406,0.0353,0.0369,
調布 (Chofu),2012-04-13,03:01～04:00,0.0387,0.0355,0.0369,
調布 (Chofu),2012-04-13,02:01～03:00,0.0401,0.0351,0.0372,
調布 (Chofu),2012-04-13,01:01～02:00,0.0406,0.0350,0.0372,
調布 (Chofu),2012-04-13,00:01～01:00,0.0428,0.0349,0.0370,
調布 (Chofu),2012-04-12,23:01～24:00,0.0390,0.0352,0.0370,
調布 (Chofu),2012-04-12,22:01～23:00,0.0400,0.0354,0.0369,
調布 (Chofu),2012-04-12,21:01～22:00,0.0405,0.0354,0.0369,
調布 (Chofu),2012-04-12,20:01～21:00,0.0395,0.0345,0.0366,
調布 (Chofu),2012-04-12,19:01～20:00,0.0388,0.0353,0.0367,
調布 (Chofu),2012-04-12,18:01～19:00,0.0389,0.0336,0.0365,
調布 (Chofu),2012-04-12,17:01～18:00,0.0396,0.0346,0.0366,
調布 (Chofu),2012-04-12,16:01～17:00,0.0389,0.0344,0.0364,
調布 (Chofu),2012-04-12,15:01～16:00,0.0401,0.0350,0.0367,
調布 (Chofu),2012-04-12,14:01～15:00,0.0388,0.0342,0.0364,
調布 (Chofu),2012-04-12,13:01～14:00,0.0401,0.0347,0.0369,
調布 (Chofu),2012-04-12,12:01～13:00,0.0391,0.0349,0.0366,
調布 (Chofu),2012-04-12,11:01～12:00,0.0396,0.0346,0.0366,
調布 (Chofu),2012-04-12,10:01～11:00,0.0396,0.0352,0.0369,
調布 (Chofu),2012-04-12,09:01～10:00,0.0408,0.0352,0.0372,
調布 (Chofu),2012-04-12,08:01～09:00,0.0405,0.0354,0.0368,
調布 (Chofu),2012-04-12,07:01～08:00,0.0390,0.0353,0.0368,
調布 (Chofu),2012-04-12,06:01～07:00,0.0396,0.0350,0.0368,
調布 (Chofu),2012-04-12,05:01～06:00,0.0395,0.0347,0.0367,
調布 (Chofu),2012-04-12,04:01～05:00,0.0393,0.0352,0.0367,
調布 (Chofu),2012-04-12,03:01～04:00,0.0403,0.0347,0.0369,
調布 (Chofu),2012-04-12,02:01～03:00,0.0398,0.0347,0.0368,
調布 (Chofu),2012-04-12,01:01～02:00,0.0399,0.0350,0.0369,
調布 (Chofu),2012-04-12,00:01～01:00,0.0413,0.0349,0.0371,
調布 (Chofu),2012-04-11,23:01～24:00,0.0414,0.0359,0.0382,
調布 (Chofu),2012-04-11,22:01～23:00,0.0448,0.0374,0.0412,
調布 (Chofu),2012-04-11,21:01～22:00,0.0470,0.0393,0.0429,
調布 (Chofu),2012-04-11,20:01～21:00,0.0447,0.0378,0.0409,
調布 (Chofu),2012-04-11,19:01～20:00,0.0425,0.0359,0.0386,
調布 (Chofu),2012-04-11,18:01～19:00,0.0424,0.0350,0.0375,
調布 (Chofu),2012-04-11,17:01～18:00,0.0402,0.0354,0.0374,
調布 (Chofu),2012-04-11,16:01～17:00,0.0410,0.0351,0.0372,
調布 (Chofu),2012-04-11,15:01～16:00,0.0403,0.0356,0.0376,
調布 (Chofu),2012-04-11,14:01～15:00,0.0399,0.0348,0.0373,
調布 (Chofu),2012-04-11,13:01～14:00,0.0398,0.0355,0.0375,
調布 (Chofu),2012-04-11,12:01～13:00,0.0426,0.0358,0.0389,
調布 (Chofu),2012-04-11,11:01～12:00,0.0448,0.0389,0.0411,
